{"data":{"norad_id":56296,"epoch":"2026-05-24T23:24:28.219104Z","epoch_age_seconds":73810,"freshness":"FRESH","line1":"1 56296U 23056L   26144.97532661  .00000305  00000+0  20627-4 0  9998","line2":"2 56296  43.0021  98.3119 0001324 268.0437  92.0263 15.27573284172164","mean_motion":15.27573284,"eccentricity":0.0001324,"inclination_deg":43.0021,"raan_deg":98.3119,"arg_perigee_deg":268.0437,"mean_anomaly_deg":92.0263,"bstar":2.0627e-5,"rev_number":17216,"period_min":94.267163158897,"perigee_km":482.16078253169,"apogee_km":483.97762993511,"semimajor_km":6861.2062062334,"source":"CELESTRAK","updated_at":"2026-05-25T13:38:17.966086Z"}}